Погода в Боготе

Колумбия     4°37′52″N   74°06′27″W
темп.,
°C
ветер,
м/с
пор.,
м/с
влажн.,
%
обл.,
%
осадки,
мм/ч
давл.,
гПа
погр.,
м
17 апреля, сб
сб1701:00+8в119718 0.0 101836
04:00+8в119559 0.0 101812
07:00+9вюв1290100 0.0 1019114
10:00+16юв2263100 0.1 10171193
13:00+16юв3363100 0.4 10141170
16:00+15юв2368100 0.8 1012964
19:00+10юв2394100 1.7 1017148
22:00+10юв2296100 0.4 101989
18 апреля, вс
вс1801:00+10вюв1197100 1.6 101853
04:00+10в1296100 0.6 101783
07:00+10вюв1195100 0.8 1019105
10:00+11вюв1288100 0.4 1019381
13:00+16ююв2268100 0.6 1014975
16:00+15ю2267100 0.8 10121007
19:00+11ю2295100 2.0 1016101
22:00+9вюв1196100 0.2 102023
19 апреля, пн
пн1901:00+8в1197100 0.2 101931
04:00+8в1197100 0.0 101929
07:00+9в1291100 0.0 1020119
10:00+17вюв1350100 0.0 10181284
13:00+20ююз1338100 0.0 10122438
16:00+13юз2382100 0.8 1014368
19:00+10юв2294100 1.7 101851
22:00+9вюв1194100 0.0 102149
20 апреля, вт
вт2001:00+7вюв1188100 0.0 102017
04:00+6вюв218478 0.0 102021
07:00+8вюв1276100 0.0 102171
10:00+17ю1238100 0.0 10171238
13:00+20юз233586 0.0 10132156
16:00+15зюз236999 0.3 1013365
19:00+11ююз129498 1.9 1017127
22:00+11вюв1196100 0.6 101929
21 апреля, ср
ср2101:00+10вюв0097100 0.8 101826
04:00+9юв119699 0.0 101830
07:00+10юв1292100 0.0 1019183
10:00+16ю1165100 0.1 10171140
13:00+15в1169100 1.6 1015908
16:00+14ююв1282100 1.6 1013588
19:00+11юв1195100 2.6 101754
22:00+11вюв119571 0.1 101928